This demonstration page uses our WeatherBlox Daily Observations layout. Learn more.

Hourly Observations for October 18, 2020

Temp ( °F °C ) Dew Point ( °F °C ) Humidity (%) Winds ( mph kmh ) Pressure ( in mb ) Visibility ( mi km ) Precip ( " mm )
12:15 am 00:15 Clear 41 5 37 3 87 87 Calm 30.43 1031 10 16.0934 0 0
12:35 am 00:35 Clear 39 4 37 3 93 93 Calm 30.44 1031 10 16.0934 0 0
12:55 am 00:55 Clear 37 3 37 3 100 100 Calm 30.44 1031 10 16.0934 0 0
1:15 am 01:15 Clear 39 4 37 3 93 93 Calm 30.45 1031 10 16.0934 0 0
1:35 am 01:35 Clear 37 3 37 3 100 100 Calm 30.45 1031 10 16.0934 0 0
1:55 am 01:55 Clear 37 3 36 2 93 93 Calm 30.45 1031 10 16.0934 0 0
2:15 am 02:15 Clear 37 3 36 2 93 93 Calm 30.45 1031 10 16.0934 0 0
2:35 am 02:35 Clear 37 3 37 3 100 100 Calm 30.46 1031 10 16.0934 0 0
2:55 am 02:55 Clear 36 2 36 2 100 100 Calm 30.45 1031 10 16.0934 0 0
3:15 am 03:15 Clear 36 2 36 2 100 100 Calm 30.45 1031 10 16.0934 0 0
3:35 am 03:35 Clear 36 2 36 2 100 100 Calm 30.45 1031 10 16.0934 0 0
3:55 am 03:55 Clear 36 2 36 2 100 100 NNW 3 6 30.45 1031 10 16.0934 0 0
4:15 am 04:15 Clear 36 2 36 2 100 100 NNW 3 6 30.44 1031 10 16.0934 0 0
4:35 am 04:35 Clear 36 2 36 2 100 100 Calm 30.45 1031 10 16.0934 0 0
4:55 am 04:55 Clear 34 1 34 1 100 100 Calm 30.45 1031 10 16.0934 0 0
5:15 am 05:15 Clear 36 2 36 2 100 100 Calm 30.45 1031 10 16.0934 0 0
5:35 am 05:35 Clear 36 2 36 2 100 100 Calm 30.46 1031 10 16.0934 0 0
5:55 am 05:55 Clear 34 1 34 1 100 100 Calm 30.46 1032 10 16.0934 0 0
6:15 am 06:15 Clear 34 1 34 1 100 100 Calm 30.46 1032 10 16.0934 0 0
6:35 am 06:35 Clear 34 1 34 1 100 100 Calm 30.46 1032 10 16.0934 0 0
6:55 am 06:55 Clear 34 1 34 1 100 100 Calm 30.46 1032 10 16.0934 0 0
7:15 am 07:15 Clear 34 1 34 1 100 100 NNE 3 6 30.45 1031 10 16.0934 0 0
7:35 am 07:35 Sunny 34 1 34 1 100 100 Calm 30.45 1031 10 16.0934 0 0
7:55 am 07:55 Sunny 34 1 34 1 100 100 Calm 30.46 1032 10 16.0934 0 0
8:15 am 08:15 Sunny 34 1 34 1 100 100 Calm 30.46 1032 10 16.0934 0 0
8:35 am 08:35 Sunny 36 2 36 2 100 100 Calm 30.47 1032 10 16.0934 0 0
8:55 am 08:55 Sunny 39 4 39 4 100 100 Calm 30.47 1032 10 16.0934 0 0
9:15 am 09:15 Sunny 43 6 41 5 93 93 Calm 30.47 1032 10 16.0934 0 0
9:35 am 09:35 Sunny 43 6 41 5 93 93 Calm 30.47 1032 10 16.0934 0 0
9:55 am 09:55 Sunny 45 7 43 6 93 93 Calm 30.47 1032 10 16.0934 0 0
10:15 am 10:15 Sunny 48 9 43 6 82 82 Calm 30.47 1032 10 16.0934 0 0
10:35 am 10:35 Sunny 50 10 43 6 76 76 Calm 30.46 1031 10 16.0934 0 0
10:55 am 10:55 Sunny 52 11 43 6 72 72 Calm 30.45 1031 10 16.0934 0 0
11:15 am 11:15 Sunny 54 12 43 6 67 67 S 5 7 30.45 1031 10 16.0934 0 0
11:35 am 11:35 Sunny 55 13 43 6 63 63 SSW 7 11 30.44 1031 10 16.0934 0 0
11:55 am 11:55 Sunny 59 15 43 6 55 55 S 10 17 30.44 1031 10 16.0934 0 0
12:15 pm 12:15 Partly Cloudy 59 15 43 6 55 55 S 12 19 30.43 1030 10 16.0934 0 0
12:35 pm 12:35 Partly Cloudy 59 15 43 6 55 55 S 12 19 30.42 1030 10 16.0934 0 0
12:55 pm 12:55 Partly Cloudy 61 16 43 6 52 52 S 12 19 30.41 1030 10 16.0934 0 0
1:15 pm 13:15 Partly Cloudy 61 16 45 7 55 55 S 9 15 30.4 1029 10 16.0934 0 0
1:35 pm 13:35 Partly Cloudy 63 17 45 7 52 52 S 10 17 30.39 1029 10 16.0934 0 0
1:55 pm 13:55 Partly Cloudy 63 17 45 7 52 52 SSW 7 11 30.38 1029 10 16.0934 0 0
2:15 pm 14:15 Partly Cloudy 63 17 45 7 52 52 S 12 19 30.37 1028 10 16.0934 0 0
2:35 pm 14:35 Mostly Cloudy 63 17 45 7 52 52 SSW 8 13 30.36 1028 10 16.0934 0 0
2:55 pm 14:55 Partly Cloudy 63 17 45 7 52 52 SSW 9 15 30.36 1028 10 16.0934 0 0
3:15 pm 15:15 Partly Cloudy 64 18 45 7 49 49 S 8 13 30.33 1027 10 16.0934 0 0
3:35 pm 15:35 Partly Cloudy 63 17 45 7 52 52 S 12 19 30.33 1027 10 16.0934 0 0
3:55 pm 15:55 Sunny 63 17 45 7 52 52 S 9 15 30.34 1027 10 16.0934 0 0
4:15 pm 16:15 Sunny 63 17 45 7 52 52 S 8 13 30.33 1027 10 16.0934 0 0
4:35 pm 16:35 Partly Cloudy 63 17 45 7 52 52 SSW 6 9 30.33 1027 10 16.0934 0 0
4:55 pm 16:55 Partly Cloudy 63 17 46 8 56 56 S 7 11 30.32 1027 10 16.0934 0 0
5:15 pm 17:15 Sunny 63 17 46 8 56 56 S 7 11 30.32 1027 10 16.0934 0 0
5:35 pm 17:35 Partly Cloudy 63 17 46 8 56 56 S 5 7 30.32 1027 10 16.0934 0 0
5:55 pm 17:55 Partly Cloudy 63 17 46 8 56 56 S 9 15 30.32 1027 10 16.0934 0 0
6:15 pm 18:15 Partly Cloudy 61 16 48 9 63 63 S 6 9 30.33 1027 10 16.0934 0 0
6:35 pm 18:35 Clear 59 15 50 10 72 72 S 7 11 30.32 1027 10 16.0934 0 0
6:55 pm 18:55 Clear 59 15 50 10 72 72 S 9 15 30.33 1027 10 16.0934 0 0
7:15 pm 19:15 Clear 59 15 50 10 72 72 SSE 6 9 30.32 1027 10 16.0934 0 0
7:35 pm 19:35 Clear 59 15 50 10 72 72 SSE 6 9 30.32 1027 10 16.0934 0 0
7:55 pm 19:55 Clear 57 14 50 10 77 77 S 6 9 30.33 1027 10 16.0934 0 0
8:15 pm 20:15 Clear 55 13 50 10 82 82 S 6 9 30.32 1027 10 16.0934 0 0
8:35 pm 20:35 Clear 54 12 50 10 88 88 Calm 30.33 1027 10 16.0934 0 0
8:55 pm 20:55 Mostly Cloudy 52 11 50 10 94 94 Calm 30.33 1027 10 16.0934 0 0
9:15 pm 21:15 Cloudy 54 12 50 10 88 88 Calm 30.34 1028 10 16.0934 0 0
9:35 pm 21:35 Cloudy 52 11 50 10 94 94 Calm 30.34 1028 10 16.0934 0 0
9:55 pm 21:55 Mostly Cloudy 52 11 50 10 94 94 Calm 30.34 1028 10 16.0934 0 0
10:15 pm 22:15 Partly Cloudy 50 10 50 10 100 100 Calm 30.36 1028 10 16.0934 0 0
10:35 pm 22:35 Mostly Cloudy 50 10 50 10 100 100 Calm 30.36 1028 10 16.0934 0 0
10:55 pm 22:55 Mostly Cloudy 50 10 50 10 100 100 Calm 30.34 1027 10 16.0934 0 0
11:15 pm 23:15 Partly Cloudy 52 11 50 10 94 94 S 3 6 30.33 1027 10 16.0934 0 0
11:35 pm 23:35 Partly Cloudy 48 9 46 8 94 94 Calm 30.34 1027 10 16.0934 0 0
11:55 pm 23:55 Mostly Cloudy 46 8 46 8 100 100 Calm 30.34 1027 10 16.0934 0 0

Powered by AerisWeather